• Processing (Info)

  • MPEC 1998-A17 : 1998 AK8

    The following Minor Planet Electronic Circular may be linked-to from your own Web pages, but must not otherwise be redistributed electronically.

    A form allowing access to any MPEC is at the bottom of this page.


    Read MPEC 1998-A16 Read MPEC 1998-A18


    M.P.E.C. 1998-A17                                Issued 1998 Jan. 11, 21:14 UT
    
         The Minor Planet Electronic Circulars contain information on unusual
             minor planets and routine data on comets.  They are published
       on behalf of Commission 20 of the International Astronomical Union by the
              Minor Planet Center, Smithsonian Astrophysical Observatory,
                              Cambridge, MA 02138, U.S.A.
    
                 BMARSDEN@CFA.HARVARD.EDU or GWILLIAMS@CFA.HARVARD.EDU
                       URL http://cfa-www.harvard.edu/iau/mpc.html
    
                                       1998 AK8
    
    Observations:
         J98A08K* C1998 01 09.21542 10 31 42.01 +09 06 22.3          17.6 V      910
         J98A08K  C1998 01 09.21936 10 31 42.17 +09 06 37.7          17.5 V      910
         J98A08K  C1998 01 09.22277 10 31 42.27 +09 06 50.6          17.8 V      910
         J98A08K  C1998 01 09.22564 10 31 42.36 +09 07 01.8          17.6 V      910
         J98A08K  C1998 01 09.23017 10 31 42.53 +09 07 19.6          17.7 V      910
         J98A08K  C1998 01 09.23290 10 31 42.61 +09 07 29.9          17.8 V      910
         J98A08K  C1998 01 09.23627 10 31 42.75 +09 07 42.9                      910
         J98A08K  C1998 01 09.23877 10 31 42.86 +09 07 52.7                      910
         J98A08K  C1998 01 09.99832 10 32 13.03 +09 57 24.1          17.3 V      910
         J98A08K  C1998 01 10.00046 10 32 13.10 +09 57 32.7          17.6 V      910
         J98A08K  C1998 01 10.00257 10 32 13.18 +09 57 40.6          17.3 V      910
         J98A08K  C1998 01 10.00468 10 32 13.24 +09 57 49.3          17.5 V      910
         J98A08K  C1998 01 10.00678 10 32 13.31 +09 57 57.5          17.5 V      910
         J98A08K  C1998 01 10.00889 10 32 13.37 +09 58 06.0          17.6 V      910
         J98A08K  C1998 01 10.01100 10 32 13.46 +09 58 14.0          17.5 V      910
         J98A08K  C1998 01 10.01310 10 32 13.53 +09 58 22.6          17.6 V      910
         J98A08K  C1998 01 10.01521 10 32 13.61 +09 58 30.9          17.4 V      910
         J98A08K  C1998 01 10.02808 10 32 14.05 +09 59 21.9          17.5 V      910
         J98A08K  C1998 01 10.03031 10 32 14.11 +09 59 30.9          17.5 V      910
         J98A08K  C1998 01 10.03253 10 32 14.18 +09 59 39.6          17.4 V      910
         J98A08K  C1998 01 10.03476 10 32 14.26 +09 59 48.2          17.4 V      910
         J98A08K  C1998 01 10.03698 10 32 14.34 +09 59 57.4          17.5 V      910
         J98A08K  C1998 01 10.03921 10 32 14.42 +10 00 06.0          17.4 V      910
         J98A08K  C1998 01 10.04142 10 32 14.49 +10 00 14.8          17.4 V      910
         J98A08K  C1998 01 10.04365 10 32 14.56 +10 00 23.7          17.5 V      910
         J98A08K  C1998 01 10.04587 10 32 14.64 +10 00 32.5          17.4 V      910
         J98A08K  C1998 01 10.05764 10 32 15.01 +10 01 18.8          17.3 R      611
         J98A08K  C1998 01 10.06366 10 32 15.19 +10 01 42.0          17.0 R      611
         J98A08K  C1998 01 10.07813 10 32 15.67 +10 02 39.3          17.2 R      611
         J98A08K  C1998 01 10.37366 10 32 26.87 +10 22 17.2                      658
         J98A08K  C1998 01 10.37539 10 32 26.95 +10 22 24.4                      658
         J98A08K  C1998 01 10.37854 10 32 27.10 +10 22 36.5                      658
         J98A08K  C1998 01 10.87597 10 32 45.48 +10 56 02.9          17.0 V      046
         J98A08K  C1998 01 10.87743 10 32 45.55 +10 56 09.1                      046
         J98A08K  C1998 01 10.87861 10 32 45.57 +10 56 13.6                      046
         J98A08K  C1998 01 10.87980 10 32 45.63 +10 56 18.4                      046
         J98A08K  C1998 01 10.88272 10 32 45.73 +10 56 31.0                      046
         J98A08K  C1998 01 10.94318 10 32 47.87 +11 00 37.7                      587
         J98A08K  C1998 01 10.95073 10 32 48.14 +11 01 07.8                      587
         J98A08K  C1998 01 10.97583 10 32 48.93 +11 02 51.5          17.6        627
         J98A08K  C1998 01 10.97680 10 32 48.88 +11 02 53.7          17.4 V      557
         J98A08K  C1998 01 10.97824 10 32 48.94 +11 03 00.0                      557
         J98A08K  C1998 01 10.98640 10 32 49.36 +11 03 36.0          17.5        627
         J98A08K  C1998 01 10.98992 10 32 49.32 +11 03 47.8                      557
         J98A08K  C1998 01 10.99433 10 32 49.64 +11 04 06.3          17.2        627
         J98A08K  C1998 01 11.00486 10 32 49.86 +11 04 48.9          18.1 R      611
         J98A08K  C1998 01 11.00903 10 32 50.04 +11 05 07.4          18.0 R      611
         J98A08K  C1998 01 11.01319 10 32 50.14 +11 05 22.9          17.6 R      611
         J98A08K  C1998 01 11.01736 10 32 50.27 +11 05 40.8          17.5 R      611
         J98A08K  C1998 01 11.02153 10 32 50.41 +11 05 57.0          17.2 R      611
         J98A08K  C1998 01 11.02569 10 32 50.51 +11 06 13.6          17.3 R      611
         J98A08K  C1998 01 11.02986 10 32 50.68 +11 06 31.6          17.2 R      611
         J98A08K  C1998 01 11.03403 10 32 50.77 +11 06 47.6          17.6 R      611
         J98A08K  C1998 01 11.03819 10 32 50.92 +11 07 04.8          17.0 R      611
         J98A08K  C1998 01 11.04236 10 32 51.10 +11 07 22.7          16.4 R      611
         J98A08K  C1998 01 11.04653 10 32 51.21 +11 07 39.6          17.6 R      611
         J98A08K  C1998 01 11.05069 10 32 51.31 +11 07 56.2          17.4 R      611
         J98A08K  C1998 01 11.05486 10 32 51.46 +11 08 13.8          17.1 R      611
         J98A08K  C1998 01 11.05903 10 32 51.58 +11 08 30.0          16.8 R      611
         J98A08K  C1998 01 11.06319 10 32 51.71 +11 08 47.1          16.9 R      611
         J98A08K  C1998 01 11.06736 10 32 51.84 +11 09 04.4          16.9 R      611
         J98A08K  C1998 01 11.07153 10 32 51.97 +11 09 21.2          16.9 R      611
         J98A08K  C1998 01 11.07569 10 32 52.12 +11 09 38.6          16.7 R      611
         J98A08K  C1998 01 11.11653 10 32 53.32 +11 12 25.7          17.3 R      046
         J98A08K  C1998 01 11.11747 10 32 53.37 +11 12 29.6                      046
         J98A08K  C1998 01 11.11833 10 32 53.39 +11 12 33.3                      046
         J98A08K  C1998 01 11.15521 10 32 55.53 +11 15 04.2                      784
         J98A08K  C1998 01 11.15990 10 32 55.67 +11 15 24.5                      784
         J98A08K  C1998 01 11.16910 10 32 55.94 +11 16 01.5                      784
         J98A08K  C1998 01 11.17622 10 32 56.16 +11 16 31.1                      784
         J98A08K  C1998 01 11.18819 10 32 56.61 +11 17 19.2                      784
         J98A08K  C1998 01 11.19340 10 32 56.75 +11 17 41.3                      784
         J98A08K  C1998 01 11.19882 10 32 55.93 +11 18 02.4          17.3 V      557
         J98A08K  C1998 01 11.19983 10 32 56.97 +11 18 08.2                      784
         J98A08K  C1998 01 11.20469 10 32 57.13 +11 18 27.4                      784
         J98A08K  C1998 01 11.21510 10 32 57.48 +11 19 10.8                      784
         J98A08K  C1998 01 11.22160 10 32 56.67 +11 19 35.8                      557
         J98A08K  C1998 01 11.23523 10 32 57.12 +11 20 31.7                      557
         J98A08K  C1998 01 11.23688 10 32 57.18 +11 20 38.2                      557
         J98A08K  C1998 01 11.33545 10 33 01.11 +11 27 26.2          17.0 R      817
         J98A08K  C1998 01 11.33800 10 33 01.21 +11 27 37.0          17.1 R      817
         J98A08K  C1998 01 11.34465 10 33 01.39 +11 28 04.8          16.9 R      817
         J98A08K  C1998 01 11.35265 10 33 01.59 +11 28 36.8          17.2 R      817
         J98A08K  C1998 01 11.36288 10 33 02.51 +11 29 17.4                      658
         J98A08K  C1998 01 11.36965 10 33 02.67 +11 29 45.9                      658
         J98A08K  C1998 01 11.37145 10 33 02.78 +11 29 53.2                      658
    
    Observer details:
    046 Klet.  Observers J. Ticha, M. Tichy.  Measurer M. Tichy.  0.57-m f/5.2
        reflector + CCD.
    557 Ondrejov.  Observer L. Sarounova.  0.65-m f/3.6 reflector + CCD.
    587 Sormano.  Observers G. Ventre, P. Sicoli.  0.5-m reflector + CCD.
    611 Starkenburg.  Observers M. Busch, A. Seib, R. Stoss.  0.45-m f/4.4
        reflector + CCD.
    627 Blauvac.  Observer R. Roy.  0.26-m f/4.7 reflector + CCD.
    658 Dominion Astrophysical Observatory.  Observer D. D. Balam.  1.82-m
        reflector + CCD.
    784 Stull Observatory, Alfred University.  Observer J. S. Weaver.  0.81-m f/4
        reflector + CCD.
    817 Sudbury.  Observer D. di Cicco.  0.41-m Schmidt-Cassegrain + CCD.
    910 Caussols-ODAS.  Observers A. Maury, D. Albanese, G. Hahn, M. Hoffmann.
        Measurers A. Maury, G. Hahn, M. Hoffman.  0.9-m Schmidt + CCD.
    
    Orbital elements:
    1998 AK8
    Epoch 1998 Jan. 7.0 TT = JDT 2450820.5                  Williams
    M 351.45899              (2000.0)            P               Q
    n   0.40792859     Peri.   11.14995     -0.69165902     -0.40711704
    a   1.8005836      Node   126.86105     +0.59193762     -0.79278284
    e   0.1829029      Incl.   48.21000     +0.41378455     +0.45359793
    P   2.42           H   16.5           G   0.15
    From 86 observations 1998 Jan. 9-11.
    
